| time (UTC) | temp F | wind direction | speed MPH | gust MPH | rain 1hr in | rain 24hr in | rain mn in | humidity % | barometer mb |
| 20260502224604 | 51 | 98 | 4.0 | 10.0 | 0.00 | 0.00 | 0.00 | 73 | 1019.0 |
| 20260502224104 | 51 | 59 | 5.0 | 10.0 | 0.00 | 0.00 | 0.00 | 73 | 1019.1 |
| 20260502223602 | 51 | 79 | 5.0 | 10.0 | 0.00 | 0.00 | 0.00 | 73 | 1019.1 |
| 20260502223321 | 51 | 89 | 6.0 | 15.0 | 0.00 | 0.00 | 0.00 | 74 | 1019.1 |
| 20260502222602 | 51 | 74 | 7.0 | 15.0 | 0.00 | 0.00 | 0.00 | 73 | 1019.3 |
| 20260502222101 | 51 | 66 | 6.0 | 12.0 | 0.00 | 0.00 | 0.00 | 74 | 1019.4 |
| 20260502221602 | 52 | 86 | 7.0 | 16.0 | 0.00 | 0.00 | 0.00 | 73 | 1019.6 |
| 20260502221101 | 52 | 13 | 6.0 | 16.0 | 0.00 | 0.00 | 0.00 | 72 | 1019.6 |
| 20260502220602 | 53 | 124 | 4.0 | 11.0 | 0.00 | 0.00 | 0.00 | 73 | 1019.7 |
| 20260502215602 | 53 | 359 | 5.0 | 10.0 | 0.00 | 0.00 | 0.00 | 72 | 1019.6 |
| 20260502215551 | 53 | 82 | 4.0 | 9.0 | 0.00 | 0.00 | 0.00 | 74 | 1019.6 |
| 20260502214820 | 53 | 79 | 4.0 | 9.0 | 0.00 | 0.00 | 0.00 | 75 | 1019.5 |
| 20260502214056 | 53 | 96 | 3.0 | 6.0 | 0.00 | 0.00 | 0.00 | 76 | 1019.4 |
| 20260502213550 | 53 | 88 | 1.0 | 6.0 | 0.00 | 0.00 | 0.00 | 76 | 1019.4 |
| 20260502213044 | 53 | 91 | 0.0 | 2.0 | 0.00 | 0.00 | 0.00 | 76 | 1019.3 |
| 20260502212757 | 53 | 91 | 0.0 | 1.0 | 0.00 | 0.00 | 0.00 | 76 | 1019.2 |
| 20260502212032 | 53 | 91 | 0.0 | 1.0 | 0.00 | 0.00 | 0.00 | 76 | 1019.2 |
| 20260502211743 | 53 | 91 | 1.0 | 4.0 | 0.00 | 0.00 | 0.00 | 75 | 1019.3 |
| 20260502211020 | 53 | 91 | 1.0 | 4.0 | 0.00 | 0.00 | 0.00 | 75 | 1019.4 |
| 20260502210514 | 53 | 113 | 2.0 | 4.0 | 0.00 | 0.00 | 0.00 | 75 | 1019.4 |
| 20260502210008 | 53 | 113 | 2.0 | 4.0 | 0.00 | 0.00 | 0.00 | 75 | 1019.4 |
| 20260502205501 | 53 | 90 | 2.0 | 5.0 | 0.00 | 0.00 | 0.06 | 75 | 1019.5 |
| 20260502205150 | 53 | 87 | 1.0 | 4.0 | 0.00 | 0.00 | 0.06 | 76 | 1019.5 |
| 20260502205032 | 53 | 88 | 2.0 | 5.0 | 0.00 | 0.00 | 0.06 | 75 | 1019.5 |
| 20260502204203 | 53 | 287 | 0.0 | 2.0 | 0.00 | 0.00 | 0.06 | 76 | 1019.6 |
| 20260502203438 | 53 | 287 | 0.0 | 2.0 | 0.00 | 0.00 | 0.06 | 76 | 1019.7 |
| 20260502202932 | 53 | 287 | 0.0 | 1.0 | 0.00 | 0.00 | 0.06 | 76 | 1019.8 |
| 20260502202425 | 53 | 287 | 0.0 | 1.0 | 0.00 | 0.00 | 0.06 | 76 | 1019.7 |
| 20260502201920 | 53 | 287 | 0.0 | 1.0 | 0.00 | 0.00 | 0.06 | 76 | 1019.8 |
| 20260502201414 | 53 | 287 | 0.0 | 2.0 | 0.00 | 0.00 | 0.06 | 76 | 1019.7 |
| 20260502200908 | 53 | 287 | 1.0 | 3.0 | 0.00 | 0.00 | 0.06 | 76 | 1019.9 |
| 20260502200408 | 53 | 287 | 2.0 | 4.0 | 0.00 | 0.00 | 0.06 | 76 | 1019.9 |
| 20260502195906 | 53 | 287 | 2.0 | 4.0 | 0.00 | 0.00 | 0.06 | 76 | 1019.9 |
| 20260502195629 | 53 | 276 | 2.0 | 4.0 | 0.00 | 0.00 | 0.06 | 77 | 1019.9 |
| 20260502194902 | 53 | 261 | 3.0 | 6.0 | 0.00 | 0.00 | 0.06 | 77 | 1019.8 |
| 20260502194402 | 53 | 305 | 3.0 | 6.0 | 0.00 | 0.00 | 0.06 | 76 | 1019.9 |
| 20260502193902 | 54 | 285 | 4.0 | 9.0 | 0.00 | 0.00 | 0.06 | 76 | 1020.0 |
| 20260502193359 | 54 | 298 | 3.0 | 9.0 | 0.00 | 0.00 | 0.06 | 74 | 1020.0 |
| 20260502192900 | 54 | 269 | 2.0 | 8.0 | 0.00 | 0.00 | 0.06 | 69 | 1020.1 |
| 20260502192400 | 54 | 98 | 1.0 | 3.0 | 0.00 | 0.00 | 0.06 | 70 | 1020.0 |
| 20260502192125 | 54 | 98 | 1.0 | 2.0 | 0.00 | 0.00 | 0.06 | 69 | 1019.8 |
| 20260502191359 | 54 | 98 | 1.0 | 3.0 | 0.00 | 0.00 | 0.06 | 69 | 1019.7 |
| 20260502190856 | 54 | 98 | 2.0 | 4.0 | 0.00 | 0.00 | 0.06 | 69 | 1019.7 |
| 20260502190354 | 54 | 98 | 1.0 | 4.0 | 0.00 | 0.00 | 0.06 | 69 | 1019.6 |
| 20260502185853 | 54 | 98 | 1.0 | 3.0 | 0.00 | 0.00 | 0.06 | 70 | 1019.5 |
| 20260502185354 | 54 | 98 | 2.0 | 4.0 | 0.00 | 0.00 | 0.06 | 70 | 1019.5 |
| 20260502184854 | 54 | 98 | 2.0 | 4.0 | 0.00 | 0.00 | 0.06 | 69 | 1019.5 |
| 20260502184618 | 54 | 94 | 1.0 | 4.0 | 0.00 | 0.00 | 0.06 | 68 | 1019.4 |
| 20260502183853 | 54 | 94 | 1.0 | 3.0 | 0.00 | 0.00 | 0.06 | 67 | 1019.4 |
| 20260502183347 | 54 | 94 | 2.0 | 3.0 | 0.00 | 0.00 | 0.06 | 67 | 1019.2 |
| 20260502182845 | 55 | 94 | 2.0 | 4.0 | 0.00 | 0.00 | 0.06 | 67 | 1019.2 |
| 20260502182346 | 55 | 113 | 2.0 | 4.0 | 0.00 | 0.00 | 0.06 | 66 | 1019.2 |
| 20260502181844 | 55 | 116 | 2.0 | 4.0 | 0.00 | 0.00 | 0.06 | 65 | 1019.0 |
| 20260502181342 | 55 | 110 | 1.0 | 4.0 | 0.00 | 0.00 | 0.06 | 64 | 1019.0 |
| 20260502180841 | 56 | 90 | 1.0 | 4.0 | 0.00 | 0.00 | 0.06 | 62 | 1018.8 |
| 20260502180342 | 56 | 111 | 1.0 | 4.0 | 0.00 | 0.00 | 0.06 | 60 | 1018.8 |
| 20260502170335 | 59 | 101 | 1.0 | 5.0 | 0.00 | 0.00 | 0.06 | 53 | 1019.0 |
| 20260502164332 | 58 | 129 | 1.0 | 3.0 | 0.00 | 0.00 | 0.06 | 50 | 1018.7 |
| 20260502163831 | 58 | 185 | 1.0 | 5.0 | 0.00 | 0.00 | 0.06 | 50 | 1018.6 |
| 20260502163331 | 58 | 153 | 2.0 | 6.0 | 0.00 | 0.00 | 0.06 | 50 | 1018.5 |
| 20260502162832 | 58 | 117 | 2.0 | 6.0 | 0.00 | 0.00 | 0.06 | 52 | 1018.5 |
| 20260502162331 | 58 | 166 | 2.0 | 7.0 | 0.00 | 0.00 | 0.06 | 53 | 1018.5 |
| 20260502161831 | 58 | 93 | 3.0 | 10.0 | 0.00 | 0.00 | 0.06 | 53 | 1018.4 |
| 20260502161332 | 58 | 65 | 4.0 | 10.0 | 0.00 | 0.00 | 0.06 | 53 | 1018.4 |
| 20260502160830 | 58 | 103 | 5.0 | 12.0 | 0.00 | 0.00 | 0.06 | 53 | 1018.4 |
| 20260502160329 | 58 | 110 | 4.0 | 12.0 | 0.00 | 0.00 | 0.06 | 54 | 1018.5 |
| 20260502152253 | 59 | 16 | 2.0 | 8.0 | 0.00 | 0.00 | 0.06 | 45 | 1018.6 |
| 20260502151747 | 59 | 33 | 3.0 | 7.0 | 0.00 | 0.00 | 0.06 | 46 | 1018.6 |
| 20260502151246 | 58 | 95 | 3.0 | 6.0 | 0.00 | 0.00 | 0.06 | 47 | 1018.5 |
| 20260502150746 | 58 | 101 | 5.0 | 18.0 | 0.00 | 0.00 | 0.06 | 54 | 1018.5 |
| 20260502150241 | 58 | 347 | 9.0 | 20.0 | 0.00 | 0.00 | 0.06 | 50 | 1018.8 |
| 20260502130659 | 61 | 232 | 3.0 | 7.0 | 0.00 | 0.00 | 0.06 | 44 | 1019.3 |
| 20260502130159 | 61 | 221 | 2.0 | 5.0 | 0.00 | 0.00 | 0.06 | 43 | 1019.3 |
| 20260502123658 | 60 | 267 | 4.0 | 8.0 | 0.00 | 0.00 | 0.06 | 45 | 1019.5 |
| 20260502123425 | 60 | 253 | 3.0 | 8.0 | 0.00 | 0.00 | 0.06 | 43 | 1019.6 |
| 20260502122657 | 61 | 204 | 4.0 | 8.0 | 0.00 | 0.00 | 0.06 | 43 | 1019.5 |
| 20260502122157 | 61 | 265 | 3.0 | 9.0 | 0.00 | 0.00 | 0.06 | 39 | 1019.6 |
| 20260502121916 | 62 | 260 | 3.0 | 8.0 | 0.00 | 0.00 | 0.06 | 42 | 1019.5 |
| 20260502121157 | 62 | 294 | 2.0 | 6.0 | 0.00 | 0.00 | 0.06 | 38 | 1019.7 |
| 20260502120922 | 62 | 269 | 2.0 | 6.0 | 0.00 | 0.00 | 0.06 | 38 | 1019.8 |
| 20260502120157 | 61 | 266 | 2.0 | 6.0 | 0.00 | 0.00 | 0.06 | 39 | 1019.8 |
| 20260502120145 | 61 | 219 | 1.0 | 6.0 | 0.00 | 0.00 | 0.06 | 39 | 1019.9 |
| 20260502115156 | 60 | 271 | 2.0 | 7.0 | 0.00 | 0.00 | 0.06 | 39 | 1020.0 |
| 20260502114651 | 60 | 296 | 3.0 | 7.0 | 0.00 | 0.00 | 0.06 | 39 | 1020.1 |
| 20260502114145 | 60 | 264 | 4.0 | 7.0 | 0.00 | 0.00 | 0.06 | 41 | 1020.1 |
| 20260502113639 | 60 | 319 | 5.0 | 10.0 | 0.00 | 0.00 | 0.06 | 41 | 1020.2 |
| 20260502113133 | 60 | 265 | 4.0 | 10.0 | 0.00 | 0.00 | 0.06 | 41 | 1020.3 |
| 20260502112633 | 60 | 310 | 4.0 | 8.0 | 0.00 | 0.00 | 0.06 | 41 | 1020.3 |
| 20260502112127 | 59 | 251 | 4.0 | 8.0 | 0.00 | 0.00 | 0.06 | 44 | 1020.4 |
| 20260502111855 | 59 | 306 | 4.0 | 3.0 | 0.00 | 0.00 | 0.06 | 44 | 1020.5 |
| 20260502101449 | 57 | 275 | 5.0 | 9.0 | 0.00 | 0.09 | 0.06 | 48 | 1021.1 |
| 20260502100949 | 57 | 260 | 5.0 | 10.0 | 0.00 | 0.09 | 0.06 | 49 | 1021.2 |
| 20260502100711 | 57 | 266 | 7.0 | 10.0 | 0.00 | 0.09 | 0.06 | 48 | 1021.2 |
| 20260502091358 | 57 | 256 | 4.0 | 8.0 | 0.00 | 0.09 | 0.06 | 49 | 1021.5 |
| 20260502090859 | 57 | 258 | 6.0 | 10.0 | 0.00 | 0.09 | 0.06 | 51 | 1021.5 |
| 20260502090609 | 57 | 278 | 6.0 | 12.0 | 0.00 | 0.09 | 0.06 | 50 | 1021.6 |
| 20260502070838 | 54 | 314 | 5.0 | 10.0 | 0.00 | 0.09 | 0.06 | 69 | 1022.5 |
| 20260502070339 | 54 | 290 | 4.0 | 10.0 | 0.00 | 0.09 | 0.06 | 68 | 1022.5 |
| 20260502065839 | 53 | 312 | 4.0 | 8.0 | 0.00 | 0.09 | 0.06 | 70 | 1022.5 |
| 20260502065339 | 53 | 282 | 4.0 | 9.0 | 0.00 | 0.09 | 0.06 | 70 | 1022.5 |
| 20260502064838 | 53 | 307 | 4.0 | 9.0 | 0.00 | 0.09 | 0.06 | 74 | 1022.5 |
| 20260502064339 | 53 | 288 | 3.0 | 7.0 | 0.00 | 0.09 | 0.06 | 75 | 1022.5 |
| 20260502063837 | 53 | 257 | 3.0 | 6.0 | 0.00 | 0.09 | 0.06 | 77 | 1022.6 |
| 20260502063556 | 53 | 296 | 3.0 | 7.0 | 0.00 | 0.09 | 0.06 | 78 | 1022.6 |
| 20260502062837 | 52 | 293 | 3.0 | 7.0 | 0.00 | 0.09 | 0.06 | 79 | 1022.6 |
| 20260502062337 | 52 | 321 | 4.0 | 8.0 | 0.00 | 0.09 | 0.06 | 80 | 1022.6 |
| 20260502061837 | 52 | 275 | 4.0 | 8.0 | 0.00 | 0.09 | 0.06 | 80 | 1022.6 |
| 20260502061601 | 52 | 291 | 4.0 | 7.0 | 0.00 | 0.09 | 0.06 | 80 | 1022.6 |
| 20260502060836 | 51 | 297 | 4.0 | 7.0 | 0.00 | 0.09 | 0.06 | 80 | 1022.7 |
| 20260502060336 | 51 | 311 | 4.0 | 7.0 | 0.00 | 0.09 | 0.06 | 80 | 1022.7 |
| 20260502055834 | 52 | 280 | 4.0 | 7.0 | 0.00 | 0.09 | 0.06 | 79 | 1022.6 |
| 20260502055334 | 51 | 321 | 3.0 | 7.0 | 0.00 | 0.09 | 0.06 | 78 | 1022.6 |
| 20260502054834 | 51 | 306 | 3.0 | 7.0 | 0.00 | 0.09 | 0.06 | 78 | 1022.7 |
| 20260502054335 | 51 | 304 | 3.0 | 7.0 | 0.00 | 0.09 | 0.06 | 78 | 1022.7 |
| 20260502053835 | 51 | 306 | 3.0 | 6.0 | 0.00 | 0.09 | 0.06 | 79 | 1022.7 |
| 20260502053334 | 51 | 309 | 3.0 | 6.0 | 0.00 | 0.09 | 0.06 | 80 | 1022.8 |
| 20260502052832 | 51 | 313 | 4.0 | 7.0 | 0.00 | 0.09 | 0.06 | 79 | 1022.8 |
| 20260502052332 | 51 | 304 | 4.0 | 7.0 | 0.00 | 0.09 | 0.06 | 79 | 1022.7 |
| 20260502051833 | 51 | 289 | 4.0 | 7.0 | 0.00 | 0.09 | 0.06 | 80 | 1022.7 |
| 20260502051332 | 51 | 297 | 4.0 | 7.0 | 0.00 | 0.09 | 0.06 | 80 | 1022.7 |
| 20260502050826 | 51 | 309 | 3.0 | 6.0 | 0.00 | 0.09 | 0.06 | 80 | 1022.7 |
| 20260502050546 | 51 | 281 | 3.0 | 6.0 | 0.00 | 0.09 | 0.06 | 80 | 1022.6 |
| 20260502045814 | 51 | 280 | 2.0 | 6.0 | 0.00 | 0.09 | 0.06 | 80 | 1022.6 |
| 20260502045308 | 50 | 310 | 3.0 | 5.0 | 0.00 | 0.09 | 0.06 | 80 | 1022.6 |
| 20260502044802 | 51 | 310 | 2.0 | 5.0 | 0.00 | 0.09 | 0.06 | 80 | 1022.5 |
| 20260502044255 | 51 | 283 | 2.0 | 4.0 | 0.00 | 0.09 | 0.06 | 77 | 1022.5 |
| 20260502044017 | 50 | 267 | 2.0 | 5.0 | 0.00 | 0.09 | 0.06 | 77 | 1022.5 |
| 20260502043244 | 50 | 312 | 1.0 | 5.0 | 0.00 | 0.09 | 0.06 | 77 | 1022.5 |
| 20260502042738 | 50 | 316 | 1.0 | 3.0 | 0.00 | 0.09 | 0.06 | 77 | 1022.5 |
| 20260502042454 | 50 | 316 | 2.0 | 5.0 | 0.00 | 0.09 | 0.06 | 77 | 1022.4 |
| 20260502041726 | 50 | 27 | 2.0 | 5.0 | 0.00 | 0.09 | 0.06 | 77 | 1022.3 |
| 20260502041219 | 50 | 13 | 2.0 | 6.0 | 0.00 | 0.09 | 0.06 | 78 | 1022.3 |
| 20260502040721 | 50 | 312 | 3.0 | 6.0 | 0.00 | 0.09 | 0.06 | 79 | 1022.3 |
| 20260502040207 | 49 | 46 | 2.0 | 7.0 | 0.00 | 0.09 | 0.06 | 81 | 1022.3 |
| 20260502035701 | 50 | 315 | 3.0 | 7.0 | 0.00 | 0.09 | 0.06 | 81 | 1022.2 |
| 20260502035155 | 50 | 335 | 4.0 | 8.0 | 0.00 | 0.09 | 0.06 | 81 | 1022.3 |
| 20260502034916 | 49 | 303 | 3.0 | 8.0 | 0.00 | 0.09 | 0.06 | 78 | 1022.2 |
| 20260502034143 | 49 | 304 | 2.0 | 5.0 | 0.00 | 0.09 | 0.06 | 75 | 1022.2 |
| 20260502033638 | 49 | 315 | 2.0 | 5.0 | 0.00 | 0.09 | 0.06 | 75 | 1022.1 |
| 20260502033131 | 49 | 96 | 1.0 | 3.0 | 0.00 | 0.09 | 0.06 | 76 | 1022.1 |
| 20260502032626 | 49 | 96 | 1.0 | 3.0 | 0.00 | 0.09 | 0.06 | 76 | 1022.0 |
| 20260502032119 | 49 | 96 | 1.0 | 2.0 | 0.00 | 0.09 | 0.06 | 76 | 1022.0 |
| 20260502031614 | 49 | 96 | 1.0 | 2.0 | 0.00 | 0.09 | 0.06 | 77 | 1022.0 |
| 20260502031108 | 49 | 96 | 1.0 | 2.0 | 0.00 | 0.09 | 0.06 | 77 | 1022.0 |
| 20260502030601 | 49 | 96 | 1.0 | 3.0 | 0.00 | 0.09 | 0.06 | 78 | 1022.0 |
| 20260502030055 | 49 | 96 | 1.0 | 3.0 | 0.00 | 0.09 | 0.06 | 78 | 1022.1 |
| 20260502025548 | 49 | 96 | 1.0 | 3.0 | 0.00 | 0.09 | 0.06 | 78 | 1022.1 |
| 20260502025042 | 49 | 98 | 1.0 | 3.0 | 0.00 | 0.09 | 0.06 | 79 | 1022.0 |
| 20260502024536 | 49 | 79 | 1.0 | 3.0 | 0.00 | 0.09 | 0.06 | 79 | 1022.0 |
| 20260502024029 | 49 | 51 | 1.0 | 2.0 | 0.00 | 0.09 | 0.06 | 79 | 1022.1 |
| 20260502023524 | 49 | 52 | 0.0 | 2.0 | 0.00 | 0.09 | 0.06 | 79 | 1022.1 |
| 20260502023018 | 49 | 52 | 0.0 | 2.0 | 0.00 | 0.09 | 0.06 | 80 | 1022.1 |
| 20260502023009 | 49 | 52 | 1.0 | 2.0 | 0.00 | 0.09 | 0.06 | 80 | 1022.2 |
| 20260502022235 | 50 | 66 | 1.0 | 4.0 | 0.00 | 0.09 | 0.06 | 79 | 1022.2 |
| 20260502021501 | 50 | 51 | 2.0 | 4.0 | 0.00 | 0.09 | 0.06 | 77 | 1022.2 |
| 20260502020954 | 50 | 34 | 2.0 | 4.0 | 0.00 | 0.09 | 0.06 | 74 | 1022.2 |
| 20260502020448 | 50 | 25 | 2.0 | 5.0 | 0.00 | 0.09 | 0.06 | 74 | 1022.2 |
| 20260502015942 | 50 | 36 | 2.0 | 5.0 | 0.00 | 0.09 | 0.06 | 76 | 1022.3 |
| 20260502015436 | 50 | 49 | 2.0 | 4.0 | 0.00 | 0.09 | 0.06 | 78 | 1022.3 |
| 20260502014930 | 50 | 298 | 2.0 | 4.0 | 0.00 | 0.09 | 0.06 | 78 | 1022.3 |
| 20260502014424 | 50 | 301 | 3.0 | 6.0 | 0.00 | 0.09 | 0.06 | 77 | 1022.4 |
| 20260502013917 | 50 | 305 | 3.0 | 6.0 | 0.00 | 0.09 | 0.06 | 77 | 1022.6 |
| 20260502013412 | 50 | 316 | 3.0 | 7.0 | 0.00 | 0.09 | 0.06 | 77 | 1022.6 |
| 20260502012905 | 50 | 299 | 2.0 | 7.0 | 0.00 | 0.09 | 0.06 | 79 | 1022.7 |
| 20260502012359 | 50 | 298 | 2.0 | 4.0 | 0.00 | 0.09 | 0.06 | 80 | 1022.7 |
| 20260502011853 | 50 | 304 | 2.0 | 4.0 | 0.00 | 0.09 | 0.06 | 80 | 1022.8 |
| 20260502011608 | 49 | 321 | 1.0 | 3.0 | 0.00 | 0.09 | 0.06 | 80 | 1022.7 |
| 20260502010841 | 49 | 321 | 1.0 | 2.0 | 0.00 | 0.09 | 0.06 | 80 | 1022.8 |
| 20260502010557 | 49 | 321 | 1.0 | 3.0 | 0.00 | 0.09 | 0.06 | 80 | 1022.7 |
| 20260502005829 | 49 | 321 | 2.0 | 5.0 | 0.00 | 0.09 | 0.06 | 79 | 1022.7 |
| 20260502005329 | 49 | 321 | 2.0 | 5.0 | 0.00 | 0.09 | 0.06 | 79 | 1022.7 |
| 20260502004830 | 49 | 328 | 2.0 | 4.0 | 0.00 | 0.09 | 0.06 | 79 | 1022.7 |
| 20260502004330 | 49 | 340 | 2.0 | 5.0 | 0.00 | 0.09 | 0.06 | 78 | 1022.6 |
| 20260502004050 | 49 | 333 | 3.0 | 5.0 | 0.00 | 0.09 | 0.06 | 78 | 1022.6 |
| 20260502003330 | 49 | 310 | 3.0 | 5.0 | 0.00 | 0.09 | 0.06 | 79 | 1022.7 |
| 20260502002830 | 49 | 31 | 3.0 | 5.0 | 0.00 | 0.09 | 0.06 | 80 | 1022.7 |
| 20260502002329 | 50 | 297 | 3.0 | 7.0 | 0.00 | 0.09 | 0.06 | 81 | 1022.7 |
| 20260502001830 | 50 | 12 | 3.0 | 7.0 | 0.00 | 0.09 | 0.06 | 81 | 1022.8 |
| 20260502001329 | 50 | 304 | 3.0 | 7.0 | 0.00 | 0.09 | 0.06 | 80 | 1022.8 |
| 20260502001322 | 50 | 25 | 3.0 | 6.0 | 0.00 | 0.09 | 0.06 | 81 | 1022.8 |
| 20260502000332 | 49 | 18 | 3.0 | 6.0 | 0.00 | 0.09 | 0.06 | 81 | 1022.9 |
| 20260502000100 | 49 | 30 | 3.0 | 6.0 | 0.00 | 0.09 | 0.06 | 82 | 1022.9 |
| 20260501235553 | 49 | 328 | 3.0 | 6.0 | 0.00 | 0.09 | 0.06 | 82 | 1022.9 |
| 20260501234830 | 49 | 13 | 4.0 | 7.0 | 0.00 | 0.09 | 0.06 | 82 | 1023.0 |
| 20260501234549 | 49 | 30 | 4.0 | 7.0 | 0.00 | 0.09 | 0.06 | 82 | 1023.0 |
| 20260501233826 | 49 | 30 | 3.0 | 6.0 | 0.00 | 0.09 | 0.06 | 81 | 1023.1 |
| 20260501233326 | 49 | 37 | 3.0 | 5.0 | 0.00 | 0.09 | 0.06 | 81 | 1023.1 |
| 20260501232820 | 49 | 19 | 3.0 | 5.0 | 0.00 | 0.09 | 0.06 | 80 | 1023.1 |
| 20260501232314 | 49 | 56 | 3.0 | 6.0 | 0.00 | 0.09 | 0.06 | 80 | 1023.2 |
| 20260501231807 | 49 | 13 | 3.0 | 6.0 | 0.00 | 0.09 | 0.06 | 79 | 1023.2 |
| 20260501231308 | 49 | 16 | 3.0 | 6.0 | 0.00 | 0.09 | 0.06 | 79 | 1023.2 |
| 20260501230808 | 49 | 355 | 3.0 | 5.0 | 0.01 | 0.09 | 0.06 | 79 | 1023.2 |
| 20260501230536 | 50 | 328 | 3.0 | 6.0 | 0.01 | 0.09 | 0.06 | 78 | 1023.3 |
| 20260501225808 | 50 | 13 | 3.0 | 6.0 | 0.01 | 0.09 | 0.06 | 77 | 1023.3 |
| 20260501225528 | 49 | 34 | 2.0 | 5.0 | 0.02 | 0.09 | 0.06 | 77 | 1023.4 |